Location: Croissy-Beaubourg
(48.8283°N, 2.6696°E)
Time: 03:07:17
(UTC+00:00)

Cosmos 2082 - Pass Details

Date: 22 August 2022
Orbit: 832 x 856 km, 71.0° (Epoch: 29 September)

Event Time Altitude Azimuth Distance (km) Brightness Sun altitude
Rises 00:38:41 0° 336° (NNW) 3,408 7.6 -28.5°
Reaches altitude 10° 00:41:45 10° 352° (N) 2,475 6.9 -28.4°
Maximum altitude 00:46:01 21° 41° (NE) 1,806 6.0 -28.2°
Drops below altitude 10° 00:50:18 10° 90° (E) 2,478 6.3 -28.0°
Sets 00:53:22 0° 106° (ESE) 3,415 6.9 -27.9°
